Regional Weather Roundup
Issued by NWS

Home | Current Version | Previous Version | Graphics & Text | Print | Product List | Glossary On
Versions: 1 2 3 4 5 6 7 8 9 10 11 12 13 14 15 16 17 18 19 20 21 22 23 24 25 26 27 28 29 30 31 32 33 34 35 36 37 38 39 40 41 42 43 44 45 46 47 48 49 50
000
ASUS43 KFSD 162310
RWRSD

WEATHER ROUNDUP FOR SOUTH DAKOTA
NATIONAL WEATHER SERVICE SIOUX FALLS SD
500 PM CST MON JAN 16 2017

NOTE: "FAIR" INDICATES FEW OR NO CLOUDS BELOW 12,000 FEET WITH NO
SIGNIFICANT WEATHER AND/OR OBSTRUCTIONS TO VISIBILITY.


SDZ001>005-009-010-012>017-170000-
NORTHWEST AND NORTH CENTRAL SOUTH DAKOTA

CITY           SKY/WX    TMP DP  RH WIND       PRES   REMARKS
BUFFALO          N/A     24  14  65 NW14      30.02R WCI  12
FAITH            N/A     21  17  84 NW16      30.06R WCI   7
MOBRIDGE       CLOUDY    17   8  67 NW6       30.05R WCI   9
$$

SDZ012>016-024>037-041>051-057-063-072>074-170000-
SOUTHWEST AND SOUTH CENTRAL SOUTH DAKOTA

CITY           SKY/WX    TMP DP  RH WIND       PRES   REMARKS
RAPID CTY ARPT CLEAR     30  18  60 N17       30.06R WCI  18
PIERRE         CLOUDY    20  13  74 NW10      30.06R WCI   9
CUSTER         CLEAR     38  10  31 N5        30.02R
ELLSWORTH AFB  CLEAR     32  17  54 N17       30.05R WCI  21
PHILIP         CLEAR     26  18  71 W9        30.08R WCI  17
PINE RIDGE     CLEAR     30  20  66 W5        30.08R WCI  25
SPEARFISH      FAIR      34  16  47 NW10      30.09R WCI  26
WINNER         FAIR      27  16  63 NW10      30.05R WCI  17
$$

SDZ004>011-016>023-039-040-170000-
NORTHEAST SOUTH DAKOTA

CITY           SKY/WX    TMP DP  RH WIND       PRES   REMARKS
ABERDEEN       CLOUDY    19   7  59 NW3       30.06R
WATERTOWN      CLOUDY    21  17  84 N3        29.99S
BROOKINGS      CLOUDY    28  23  81 NW6       29.98  WCI  22
SISSETON         N/A     20  17  88 CALM      30.04S
$$

SDZ017-020-022-023-036>040-048>070-170000-
SOUTHEAST SOUTH DAKOTA

CITY           SKY/WX    TMP DP  RH WIND       PRES   REMARKS
SIOUX FALLS    FRZ RAIN  31  31 100 CALM      29.98R FOG
HURON          CLOUDY    18  11  74 NW7       30.05R WCI   9
CHAMBERLAIN    CLOUDY    23  15  70 W10       30.06R WCI  12
MITCHELL       CLOUDY    25  17  72 NW10      30.04R WCI  15
YANKTON        CLOUDY    30  27  86 CALM      29.98S
$$

ABBREVIATIONS USED IN REMARKS
   TC - TEMPERATURE IN CELSIUS
  WCI - WIND CHILL INDEX
   HX - HEAT INDEX
  VSB - VISIBILITY




USA.gov is the U.S. government's official web portal to all federal, state and local government web resources and services.